METEOSAT-9 (MSG-2) (28912 NORAD) Tracking and Keplerian Element Data

This shows tracking and keplerian element data for the satellite.

Feedback or suggestion? Click here.




ElementValue
Catalog28912
NameMETEOSAT-9 (MSG-2)
Epoch Orbit201
Epoch Day34.69260943
Epoch Year2025
RAAN58.8615
Inclination8.2204
Eccentricity5.23E-05
Argument of Perigee203.8915
Mean Anonmoly166.3272
Mean Motion1.00272901
Decay Rate1.27E-06
L11 28912U 05049B 25034.69260943 .00000127 00000+0 00000+0 0 9991
L22 28912 8.2204 58.8615 0000523 203.8915 166.3272 1.00272901 2013



Live tracking and technical data element details for METEOSAT-9 (MSG-2) (NORAD 28912). METEOSAT-9 (MSG-2) can be tracked NOW for your location showing map with azimuth and elevation plus other details from your city location.







IsCatalogInMostPopularTable: catalog: 28912, numindb: 349
Update: records affected: 1



GetName: 28912 METEOSAT-9 (MSG-2)

Hit Count: updated at: Thu, 15 May 2025 19:49:50 GMT